Location: San Francisco
(37.7750°N, 122.4180°W)
Time: 00:24:28
(UTC-08:00)

Daily predictions for brighter satellites

Satellite Brightness Start Highest point End
(mag) Time Altitude Azimuth Time Altitude Azimuth Time Altitude Azimuth
SL-16 R/B 4.3 03:47:25 21° NE 03:47:25 21° NE 03:49:28 10° NE
USA 215 4.3 03:38:29 10° ENE 03:44:09 38° ESE 03:44:09 38° ESE
CENTAUR R/B 3.9 04:00:01 31° NE 04:00:01 31° NE 04:03:25 10° NNE
Thor Agena Rocket 4.4 04:25:56 10° SSE 04:29:14 41° SE 04:29:14 41° SE
Feng Yun 1-1 Rocket 4.3 04:32:44 10° NNE 04:38:21 72° ESE 04:43:47 10° S
Cosmos 2151 Rocket 4.4 04:37:51 10° SSE 04:42:12 51° E 04:46:33 10° NNE
Gbstr 26 Del rocket 3.7 04:47:45 51° SE 04:47:45 51° SE 04:50:51 10° SE
DELTA 2 R/B (1) 3.8 04:54:08 53° SSW 04:54:08 53° SSW 04:59:24 10° SE
Meteor 1-20 Rocket 4.3 04:51:01 10° S 04:56:35 72° E 05:02:05 10° NNE
Cosmos 2181 Rocket 3.9 04:56:55 57° WNW 04:57:44 62° W 05:03:57 10° S
USA 32 4.2 04:57:58 12° N 05:02:47 72° E 05:08:00 10° S
Cosmos 1536 Rocket 4.0 05:02:00 29° N 05:04:06 61° E 05:08:26 10° SSE
Ariane Rocket 4.4 05:00:46 10° NNE 05:05:27 37° E 05:10:07 10° SSE
Cosmos 2297 3.7 05:06:46 56° WSW 05:06:53 56° WSW 05:12:23 10° S
Tiangong 2 3.2 05:10:59 22° NE 05:10:59 22° NE 05:12:26 10° ENE
Celestis-02/Orion 38 4.5 05:07:40 10° SSE 05:12:49 89° WSW 05:15:14 34° NNW
H-2A ROCKET BODY 4.5 05:12:27 20° SW 05:17:42 34° S 05:47:37 10° SE
Abrixas rocket 3.5 05:17:18 33° S 05:18:05 39° SE 05:21:15 10° ENE
Okean 1 3.3 05:17:55 36° N 05:19:29 83° E 05:23:31 10° S
Cosmos 2278 Rocket 4.3 05:24:48 11° SW 05:24:48 11° SW 05:25:06 10° SW
SJ-6F 4.2 05:17:23 10° N 05:21:28 72° WNW 05:25:30 10° SSW
Okean 1 Rocket 4.0 05:17:31 10° SSE 05:21:45 48° E 05:25:59 10° NNE
Cosmos 921 Rocket 2.9 05:21:49 36° NNW 05:23:36 82° WSW 05:28:07 10° SSE
Cosmos 1680 Rocket 4.3 05:26:55 30° NW 05:26:55 30° NW 05:30:21 10° N
Cosmos 1602 4.5 05:22:09 10° S 05:26:00 54° E 05:29:53 10° NNE
Cosmos 1812 3.1 05:27:34 45° SW 05:27:34 45° SW 05:30:41 10° S
USA 215 3.3 05:21:13 10° NE 05:27:35 57° NW 05:31:32 24° WSW
COSMO-SKYMED 1 2.6 05:23:28 10° SSE 05:27:48 83° ENE 05:31:32 14° N
SL-16 R/B 3.1 05:29:23 29° NW 05:29:23 29° NW 05:33:25 10° N
Meteor 1-11 Rocket 4.3 05:25:35 10° S 05:31:22 62° E 05:37:03 10° NNE
Cosmos 1346 Rocket 2.6 05:34:15 27° NNW 05:36:18 73° W 05:40:13 10° S
Cosmos 1238 Rocket 3.8 05:36:21 26° NW 05:38:41 43° W 05:44:08 10° SSW
Cosmos 1633 2.8 05:36:09 10° S 05:39:47 72° E 05:43:25 10° NNE
USA 129 4.5 05:39:14 10° ESE 05:40:44 18° ENE 05:42:10 11° NNE
PSLV R/B 3.4 05:43:57 42° NW 05:44:53 63° NNE 05:48:15 10° E
Meteor 1-13 Rocket 4.4 05:39:36 10° N 05:45:36 86° E 05:51:33 10° S
CENTAUR R/B 3.8 05:47:14 20° NW 05:48:18 21° NW 05:53:22 10° N
NOAA 6 4.3 05:44:04 10° N 05:48:52 42° WNW 05:53:39 10° SW
Meteor 1-28 Rocket 3.3 05:45:18 10° SSE 05:49:03 76° ENE 05:52:51 10° N
Nadezhda 3 Rocket 4.1 05:43:03 10° N 05:49:27 84° E 05:55:50 10° S
Cosmos 1300 Rocket 3.6 05:47:23 10° SSW 05:51:44 56° W 05:56:05 10° N
CZ-4 R/B 2.9 05:49:53 10° NNE 05:53:35 37° E 05:57:12 10° SSE
Lacrosse 5 1.8 05:54:43 10° SW 05:59:48 70° NW 06:04:55 10° NE
Cosmos 1536 2.7 05:58:47 10° S 06:02:45 87° W 06:06:47 10° N
Lacrosse 4 Rocket 4.2 06:03:43 10° NNE 06:04:47 11° NE 06:05:49 10° ENE
Cosmos 962 Rocket 4.4 05:59:13 10° S 06:05:22 83° W 06:11:38 10° N
Cosmos 2341 Rocket 4.0 06:00:39 10° S 06:06:57 81° W 06:13:15 10° N
Cosmos 44 Rocket 3.5 06:05:26 10° SW 06:10:31 56° WNW 06:15:35 10° NNE
Meteor 2-4 Rocket 3.7 06:08:37 10° N 06:14:09 88° E 06:19:49 10° S
CSL-04 Rocket 3.8 06:11:53 10° N 06:17:19 57° WNW 06:22:41 10° SSW
PAYLOAD A 4.2 06:12:46 10° NNE 06:18:10 90° WNW 06:23:37 10° SSW
CSL-04 Debris 4.2 06:13:25 10° N 06:18:50 65° WNW 06:24:14 10° SSW
IRS-1A Rocket 4.3 06:15:52 10° N 06:21:34 78° WNW 06:27:22 10° SSW
Meteor 1-5 Rocket 4.2 06:17:37 10° S 06:23:01 81° E 06:28:21 10° N
Helios 1B rocket 3.0 06:23:03 10° SSE 06:27:08 62° ENE 06:31:14 10° N
GPS 2-05 Rocket1 3.9 06:25:29 10° W 06:28:50 38° SSW 06:32:14 10° SE
Cosmos 2056 Rocket 4.2 06:24:17 10° NW 06:28:53 34° W 06:33:26 10° SSW
Cosmos 2369 Rocket 2.2 06:23:38 10° NNW 06:29:22 81° WSW 06:35:03 10° SSE
SPOT 3 Rocket 3.9 06:24:28 10° NNE 06:29:37 72° ESE 06:34:45 10° S
Meteor 1-29 3.7 06:31:52 10° SSE 06:35:08 54° ENE 06:38:27 10° N
Cosmos 2084 4.3 06:35:11 10° SSW 06:38:59 50° ESE 06:42:42 10° NE
USA 229 DEB 3.8 06:32:51 10° SSW 06:39:44 86° WNW 06:46:43 10° NNE
USA 229 3.8 06:32:58 10° SSW 06:39:50 86° WNW 06:46:49 10° NNE
Ariane Rocket 4.0 06:40:13 10° NNW 06:44:10 24° WNW 06:48:07 10° WSW
Cosmos 1048 Rocket 4.2 06:39:54 10° SSW 06:45:00 80° ESE 06:50:11 10° NNE
Cosmos 1975 3.9 06:41:29 10° S 06:45:27 51° E 06:49:26 10° NNE
CORIOLIS 4.2 06:41:06 10° NNE 06:46:29 88° ESE 06:51:49 10° SSW
